Regional Weather Roundup
Issued by NWS Goodland, KS

Home | Current Version | Previous Version | Text Only | Print | Product List | Glossary On
Versions: 1 2 3 4 5 6 7 8 9 10 11 12 13 14 15 16 17 18 19 20 21 22 23 24 25 26 27 28 29 30 31 32 33 34 35 36 37 38 39 40 41 42 43 44 45 46 47 48 49 50
000
ASUS43 KGLD 111108
RWRGLD

GOODLAND FORECAST AREA HOURLY WEATHER ROUNDUP
NATIONAL WEATHER SERVICE GOODLAND KS
400 AM MST SUN DEC 11 2016

...OFFICIAL OBSERVATIONS...

CITY           SKY/WX    TMP DP  RH WIND       PRES   REMARKS
GOODLAND KS    CLOUDY    36  28  73 N22G30    29.74R
HILL CITY KS   CLOUDY    23  20  88 N3        29.69R
IMPERIAL NEB   PTCLDY    28  21  75 N9        29.75R
MCCOOK NEB     CLOUDY    22  19  89 NW8       29.73R
AKRON CO       CLOUDY    30  23  75 N16       29.75R WCI  19
BURLINGTON CO  CLOUDY    38  26  62 N17G24    29.76R
LIMON CO       CLOUDY    32  26  78 N17       29.76R
$$

...UNOFFICIAL OBSERVATIONS...

CITY           SKY/WX    TMP DP  RH WIND       PRES   REMARKS
COLBY KS       CLEAR     36  30  80 NW17G23   29.74R
LENORA KS        N/A     23  32 100 MISG        N/A
NORTON KS      CLEAR     19  16  86 W9        29.71R
SHARON SPRINGS   N/A     39  31  72 N16         N/A
TRENTON NEB      N/A     31  32 100 N12         N/A
KIT CARSON CO    N/A     39  26  61 MISG        N/A
YUMA CO        FAIR      32  25  74 N10       29.75R
$$



USA.gov is the U.S. government's official web portal to all federal, state and local government web resources and services.